World > North America > United States > New York
Hourly Weather in Shelter Island, New YorkShelter Island, New York Hourly Weather

Shelter Island, NY Hourly Weather

Hourly Weather Shelter Island, New YorkHourly Weather in Shelter Island, NY
Lat: 41.08N, Lon: 72.34W  ICAO: KFOK
Web Search
Shelter Island Weather Warning NWS WEATHER ALERT FOR THE SHELTER ISLAND, NY AREA - HIGH WIND WARNING Issued: 541 PM EDT Tue Oct 26 2021 Shelter Island Weather Warning  

Helpful Tip: You can add this page to Bookmarks by pressing the Ctrl key & d key at the same time. Mac users press command & d.

Feedback

Shelter Island Hourly Weather

36 Hour Weather Scroll   °F Click to change Shelter Island hourly weather to Imperial units.Click to change Shelter Island hourly weather to Metric units. °C
Currently, Heavy Rain, temperature is 52°F11°C, dew point 50°F10°C, humidity 94%. Wind direction is N at 18 mph29 km/h with visibility of 5.00 mi8 km. Barometric pressure is 29 in982 mb.

Oct 27
2:00 AM

Oct 27
3:00 AM

Oct 27
4:00 AM

Oct 27
5:00 AM

Oct 27
6:00 AM

Oct 27
7:00 AM

Oct 27
8:00 AM

Oct 27
9:00 AM

Oct 27
10:00 AM

Oct 27
11:00 AM

Oct 27
NOON

Oct 27
1:00 PM

Oct 27
2:00 PM

Oct 27
3:00 PM

Oct 27
4:00 PM

Oct 27
5:00 PM

Oct 27
6:00 PM

Oct 27
7:00 PM

Oct 27
8:00 PM

Oct 27
9:00 PM

Oct 27
10:00 PM

Oct 27
11:00 PM

Oct 28
MIDNIGHT

Oct 28
1:00 AM

Oct 28
2:00 AM

Oct 28
3:00 AM

Oct 28
4:00 AM

Oct 28
5:00 AM

Oct 28
6:00 AM

Oct 28
7:00 AM

Oct 28
8:00 AM

Oct 28
9:00 AM

Oct 28
10:00 AM

Oct 28
11:00 AM

Oct 28
NOON

Oct 28
1:00 PM
Cloudy Cloudy Cloudy Cloudy Cloudy Cloudy Cloudy Cloudy Cloudy Cloudy Cloudy Cloudy Cloudy Cloudy Cloudy Cloudy Cloudy Cloudy Cloudy Cloudy Cloudy Cloudy Cloudy Cloudy Cloudy Cloudy Cloudy Cloudy Cloudy Cloudy Cloudy Cloudy Cloudy Cloudy Cloudy Cloudy
Cloudy Cloudy Cloudy Cloudy Cloudy Cloudy Cloudy Cloudy Cloudy Cloudy Cloudy Cloudy Cloudy Cloudy Cloudy Cloudy Cloudy Cloudy Cloudy Cloudy Cloudy Cloudy Cloudy Cloudy Cloudy Cloudy Cloudy Cloudy Cloudy Cloudy Cloudy Cloudy Cloudy Cloudy Cloudy Cloudy
59°F15°C 60°F16°C 60°F16°C 61°F16°C 61°F16°C 61°F16°C 61°F16°C 59°F15°C 57°F14°C 55°F13°C 55°F13°C 55°F13°C 55°F13°C 55°F13°C 54°F12°C 54°F12°C 53°F12°C 53°F12°C 52°F11°C 51°F11°C 51°F11°C 50°F10°C 50°F10°C 49°F9°C 49°F9°C 49°F9°C 48°F9°C 48°F9°C 48°F9°C 49°F9°C 49°F9°C 51°F11°C 54°F12°C 56°F13°C 57°F14°C 58°F14°C
Rain Rain Rain Rain Rain Rain Rain Rain Rain Rain Rain Rain Rain Rain Rain Rain Rain Rain Rain - - - - - - - - - - - - - - - - -
100% 100% 100% 100% 100% 100% 100% 41% 41% 41% 41% 41% 41% 27% 27% 27% 27% 27% 27% 14% 14% 14% 14% 14% 14% 14% 14% 14% 14% 14% 14% 13% 13% 13% 13% 13%
51°F11°C 52°F11°C 52°F11°C 53°F12°C 52°F11°C 52°F11°C 51°F11°C 49°F9°C 46°F8°C 44°F7°C 43°F6°C 43°F6°C 42°F6°C 41°F5°C 41°F5°C 40°F4°C 40°F4°C 41°F5°C 41°F5°C 41°F5°C 41°F5°C 41°F5°C 41°F5°C 40°F4°C 40°F4°C 40°F4°C 40°F4°C 40°F4°C 41°F5°C 41°F5°C 42°F6°C 42°F6°C 43°F6°C 43°F6°C 43°F6°C 42°F6°C
75% 75% 75% 75% 72% 72% 70% 69% 67% 66% 64% 64% 61% 59% 61% 59% 61% 64% 66% 68% 68% 71% 71% 71% 71% 71% 74% 74% 77% 74% 77% 71% 66% 62% 59% 55%
N N N N N N N N N N N N N N N N N N N N N N N N N SSW SE N N NNE NNE NNE NNE NNE NNE N
20 mph 20 mph 22 mph 22 mph 22 mph 25 mph 25 mph 25 mph 25 mph 25 mph 25 mph 23 mph 23 mph 23 mph 19 mph 19 mph 19 mph 12 mph 12 mph 12 mph 12 mph 12 mph 12 mph 10 mph 10 mph 10 mph 7 mph 7 mph 7 mph 7 mph 7 mph 7 mph 10 mph 10 mph 10 mph 11 mph
5 mi8 km 5 mi8 km 5 mi8 km 5 mi8 km 5 mi8 km 5 mi8 km 5 mi8 km 6 mi10 km 6 mi10 km 10 mi16 km 10 mi16 km 10 mi16 km 10 mi16 km 10 mi16 km 10 mi16 km 10 mi16 km 10 mi16 km 10 mi16 km 10 mi16 km 10 mi16 km 10 mi16 km 10 mi16 km 10 mi16 km 10 mi16 km 10 mi16 km 10 mi16 km 10 mi16 km 10 mi16 km 10 mi16 km 10 mi16 km 10 mi16 km 10 mi16 km 10 mi16 km 10 mi16 km 10 mi16 km 10 mi16 km
Hour (EDT)
Weather
Clouds
Temperature
Precip. Type
POP
Dewpoint
Humidity
Wind Direction
Wind Speed
Visibility
POP = Probability of Precipitation. ** Indicates missing data/values from model statistics.

24 Hour Forecast

Overnight - Rain. Very windy. Near steady temperature in the mid 50s. North winds 30 to 40 mph with gusts up to 60 mph. Chance of rain 90%.
Wednesday - Mostly cloudy. A chance of showers, mainly in the morning. Very windy with highs in the upper 50s. North winds 30 to 40 mph. Gusts up to 60 mph, Decreasing to 50 mph in the afternoon. Chance of rain 50%.

48 Hour Forecast API Feed


Wed, Oct 27
2:00 am

Wed, Oct 27
3:00 am

Wed, Oct 27
4:00 am

Wed, Oct 27
5:00 am

Wed, Oct 27
6:00 am

Wed, Oct 27
7:00 am

Wed, Oct 27
8:00 am

Wed, Oct 27
9:00 am

Wed, Oct 27
10:00 am

Wed, Oct 27
11:00 am

Wed, Oct 27
Noon

Wed, Oct 27
1:00 pm

Wed, Oct 27
2:00 pm

Wed, Oct 27
3:00 pm

Wed, Oct 27
4:00 pm

Wed, Oct 27
5:00 pm

Wed, Oct 27
6:00 pm

Wed, Oct 27
7:00 pm

Wed, Oct 27
8:00 pm

Wed, Oct 27
9:00 pm

Wed, Oct 27
10:00 pm

Wed, Oct 27
11:00 pm

Thu, Oct 28
Midnight

Thu, Oct 28
1:00 am

Thu, Oct 28
2:00 am

Thu, Oct 28
3:00 am

Thu, Oct 28
4:00 am

Thu, Oct 28
5:00 am

Thu, Oct 28
6:00 am

Thu, Oct 28
7:00 am

Thu, Oct 28
8:00 am

Thu, Oct 28
9:00 am

Thu, Oct 28
10:00 am

Thu, Oct 28
11:00 am

Thu, Oct 28
Noon

Thu, Oct 28
1:00 pm

Thu, Oct 28
2:00 pm

Thu, Oct 28
3:00 pm

Thu, Oct 28
4:00 pm

Thu, Oct 28
5:00 pm

Thu, Oct 28
6:00 pm

Thu, Oct 28
7:00 pm

Thu, Oct 28
8:00 pm

Thu, Oct 28
9:00 pm

Thu, Oct 28
10:00 pm

Thu, Oct 28
11:00 pm

Fri, Oct 29
Midnight

Fri, Oct 29
1:00 am
Heavy RainModerate RainModerate RainModerate RainLight RainLight RainHeavy RainLight DrizzleLight DrizzleLight DrizzlePatchy Rain PossiblePatchy Rain PossibleLight DrizzleOvercastOvercastLight DrizzlePatchy Rain PossiblePatchy Rain PossibleLight DrizzleOvercastOvercastOvercastOvercastOvercastOvercastOvercastOvercastOvercastOvercastOvercastOvercastOvercastCloudyOvercastOvercastOvercastOvercastOvercastOvercastOvercastOvercastCloudyPartly CloudyPartly CloudyPartly CloudyPartly CloudyPartly CloudyCloudy
Heavy rain Moderate rain Moderate rain Moderate rain Light rain Light rain Heavy rain Light drizzle Light drizzle Light drizzle Patchy rain possible Patchy rain possible Light drizzle Overcast Overcast Light drizzle Patchy rain possible Patchy rain possible Light drizzle Overcast Overcast Overcast Overcast Overcast Overcast Overcast Overcast Overcast Overcast Overcast Overcast Overcast Cloudy Overcast Overcast Overcast Overcast Overcast Overcast Overcast Overcast Cloudy Partly cloudy Partly cloudy Partly cloudy Partly cloudy Partly cloudy Cloudy
55°F
13°C
55°F
13°C
56°F
13°C
56°F
13°C
55°F
13°C
55°F
13°C
54°F
12°C
54°F
12°C
53°F
12°C
53°F
12°C
53°F
12°C
54°F
12°C
54°F
12°C
54°F
12°C
54°F
12°C
53°F
12°C
53°F
12°C
54°F
12°C
53°F
12°C
54°F
12°C
54°F
12°C
55°F
13°C
54°F
12°C
54°F
12°C
54°F
12°C
53°F
12°C
53°F
12°C
53°F
12°C
53°F
11°C
52°F
11°C
52°F
11°C
52°F
11°C
52°F
11°C
52°F
11°C
53°F
12°C
54°F
12°C
54°F
12°C
55°F
13°C
55°F
13°C
55°F
13°C
55°F
13°C
55°F
13°C
53°F
12°C
53°F
11°C
52°F
11°C
53°F
11°C
53°F
11°C
53°F
12°C
52°F
11°C
51°F
11°C
51°F
11°C
51°F
11°C
51°F
10°C
50°F
10°C
49°F
10°C
49°F
10°C
49°F
9°C
49°F
9°C
48°F
9°C
48°F
9°C
47°F
9°C
48°F
9°C
48°F
9°C
48°F
9°C
47°F
9°C
47°F
8°C
46°F
8°C
46°F
8°C
46°F
8°C
45°F
7°C
45°F
7°C
45°F
7°C
45°F
7°C
45°F
7°C
45°F
7°C
45°F
7°C
45°F
7°C
45°F
7°C
45°F
7°C
45°F
7°C
45°F
7°C
45°F
7°C
45°F
7°C
45°F
7°C
45°F
7°C
45°F
7°C
45°F
7°C
45°F
7°C
46°F
8°C
45°F
7°C
44°F
7°C
44°F
7°C
44°F
6°C
43°F
6°C
43°F
6°C
43°F
6°C
29.32 in
993 mb
29.32 in
993 mb
29.32 in
993 mb
29.32 in
993 mb
29.32 in
993 mb
29.35 in
994 mb
29.41 in
996 mb
29.47 in
998 mb
29.5 in
999 mb
29.53 in
1000 mb
29.56 in
1001 mb
29.59 in
1002 mb
29.62 in
1003 mb
29.65 in
1004 mb
29.68 in
1005 mb
29.71 in
1006 mb
29.74 in
1007 mb
29.77 in
1008 mb
29.77 in
1008 mb
29.8 in
1009 mb
29.8 in
1009 mb
29.8 in
1009 mb
29.8 in
1009 mb
29.8 in
1009 mb
29.83 in
1010 mb
29.85 in
1011 mb
29.85 in
1011 mb
29.88 in
1012 mb
29.91 in
1013 mb
29.91 in
1013 mb
29.91 in
1013 mb
29.94 in
1014 mb
29.94 in
1014 mb
29.94 in
1014 mb
29.94 in
1014 mb
29.94 in
1014 mb
29.94 in
1014 mb
29.94 in
1014 mb
29.94 in
1014 mb
29.94 in
1014 mb
29.94 in
1014 mb
29.97 in
1015 mb
29.97 in
1015 mb
29.97 in
1015 mb
29.97 in
1015 mb
29.97 in
1015 mb
29.97 in
1015 mb
29.97 in
1015 mb
91%87%86%85%84%84%85%86%85%85%83%79%80%80%80%83%81%78%77%75%73%71%71%71%72%73%73%75%76%77%77%77%77%76%74%71%70%69%68%68%70%71%71%72%72%71%69%68%
NNNNNNNNNNENNNENNENNENNENNENNENNENNENNENNENNENNENNENNENNENNENNENNENNENNENNENNENENNENENENENENENEENEENEENEENEENEENEENEENE
28 mph
44 km/h
31 mph
49 km/h
35 mph
57 km/h
38 mph
61 km/h
41 mph
66 km/h
43 mph
68 km/h
42 mph
68 km/h
40 mph
64 km/h
37 mph
59 km/h
34 mph
55 km/h
32 mph
51 km/h
31 mph
50 km/h
30 mph
48 km/h
29 mph
46 km/h
28 mph
45 km/h
27 mph
44 km/h
27 mph
43 km/h
27 mph
43 km/h
25 mph
41 km/h
24 mph
39 km/h
23 mph
37 km/h
23 mph
37 km/h
23 mph
36 km/h
22 mph
35 km/h
21 mph
33 km/h
19 mph
31 km/h
18 mph
30 km/h
17 mph
28 km/h
17 mph
27 km/h
17 mph
27 km/h
17 mph
27 km/h
17 mph
27 km/h
16 mph
26 km/h
14 mph
23 km/h
14 mph
23 km/h
14 mph
22 km/h
13 mph
21 km/h
11 mph
18 km/h
11 mph
18 km/h
12 mph
19 km/h
15 mph
24 km/h
15 mph
24 km/h
15 mph
25 km/h
15 mph
24 km/h
13 mph
21 km/h
14 mph
22 km/h
13 mph
22 km/h
13 mph
21 km/h
96%96%95%95%95%94%85%63%54%86%77%64%63%0%0%60%86%67%63%0%0%0%0%0%0%0%0%0%0%0%0%0%0%0%0%0%0%0%0%0%0%0%0%0%0%0%0%0%
3 mi
5 km
4 mi
7 km
4 mi
7 km
4 mi
7 km
6 mi
9 km
6 mi
9 km
3 mi
5 km
1 mi
2 km
1 mi
2 km
1 mi
2 km
6 mi
10 km
6 mi
10 km
1 mi
2 km
6 mi
10 km
6 mi
10 km
1 mi
2 km
6 mi
10 km
6 mi
10 km
1 mi
2 km
6 mi
10 km
6 mi
10 km
6 mi
10 km
6 mi
10 km
6 mi
10 km
6 mi
10 km
6 mi
10 km
6 mi
10 km
6 mi
10 km
6 mi
10 km
6 mi
10 km
6 mi
10 km
6 mi
10 km
6 mi
10 km
6 mi
10 km
6 mi
10 km
6 mi
10 km
6 mi
10 km
6 mi
10 km
6 mi
10 km
6 mi
10 km
6 mi
10 km
6 mi
10 km
6 mi
10 km
6 mi
10 km
6 mi
10 km
6 mi
10 km
6 mi
10 km
6 mi
10 km

Day/Time
Weather
Condition
Temperature
Dew Point
Pressure
Humidity
Wind Direction
Wind Speed
Prob Precip %
Visibility
Prob Precip % = Probability of Precipitation.